{"data":{"norad_id":59371,"epoch":"2026-05-25T04:58:35.918688Z","epoch_age_seconds":67811,"freshness":"FRESH","line1":"1 59371U 24061A   26145.20736017  .00002909  00000+0  96686-4 0  9990","line2":"2 59371  97.2738  93.5107 0000663  85.5452 274.5865 15.31978964120241","mean_motion":15.31978964,"eccentricity":6.63e-5,"inclination_deg":97.2738,"raan_deg":93.5107,"arg_perigee_deg":85.5452,"mean_anomaly_deg":274.5865,"bstar":9.6686e-5,"rev_number":12024,"period_min":93.996068734531,"perigee_km":469.45451882832,"apogee_km":470.36256966749,"semimajor_km":6848.0455442479,"source":"CELESTRAK","updated_at":"2026-05-25T13:38:12.836043Z"}}